Home > Weather > Auckland > Past weeks

Flag for New Zealand Weather for the Past 2 Weeks in Auckland, New Zealand

Now
66 °F

Overcast.


Feels Like: 66 °F
Forecast: 67 / 76 °F
Wind: 2 mph from Northeast

Location: Auckland Airport

Current Time: Feb 9, 2016 at 6:18:39 AM

Latest Report: Feb 9, 2016 at 5:30 AM


Visibility: N/A

Pressure: 29.80 "Hg

Humidity: 83%

Dew point: 61 °F

Location of AucklandLocation

Historic Weather in Auckland — Graph

°F

Auckland Temperature Yesterday

Maximum temperature yesterday: 75 °F (at 12:30 PM)
Minimum temperature yesterday: 66 °F (at 3:30 AM)
Average temperature yesterday: 70 °F

High & Low Weather Summary for the Past Weeks

 TemperatureHumidityPressure
High82 °F (Jan 25, 3:00 PM)100% (Jan 25, 6:30 AM)30.12 "Hg (Jan 25, 6:30 AM)
Low64 °F (Jan 25, 6:30 AM)48% (Jan 25, 11:30 AM)29.62 "Hg (Feb 6, 5:30 AM)
Average72 °F80%29.93 "Hg
* Reported Jan 25 5:00 AM — Feb 9 5:00 AM, Auckland, Weather by CustomWeather, © 2016

Note: Actual official high and low records may vary slightly from our data, if they occured in-between our weather recording intervals... More about our weather records

Advertising

Auckland Weather History for the Previous 24 Hours

 ConditionsComfort  
Time TempWeatherWind HumidityBarometerVisibility
5:00 AM
Tue, Feb 9
66 °FOvercast.3 mph83%29.80 "HgN/A
4:30 AM66 °FOvercast.3 mph83%29.83 "HgN/A
4:00 AM68 °FOvercast.5 mph78%29.83 "HgN/A
3:30 AM68 °FOvercast.6 mph78%29.83 "HgN/A
3:00 AM68 °FOvercast.5 mph78%29.83 "HgN/A
2:30 AM68 °FOvercast.6 mph73%29.86 "HgN/A
2:00 AM68 °FOvercast.8 mph73%29.86 "HgN/A
1:30 AM68 °FOvercast.7 mph78%29.86 "HgN/A
1:00 AM68 °FOvercast.7 mph78%29.86 "HgN/A
12:30 AM70 °FOvercast.8 mph73%29.86 "HgN/A
12:00 AM70 °FOvercast.5 mph78%29.89 "HgN/A
11:30 PM
Mon, Feb 8
70 °FOvercast.7 mph73%29.89 "HgN/A
11:00 PM70 °FOvercast.8 mph73%29.89 "HgN/A
10:30 PM70 °FOvercast.9 mph73%29.89 "HgN/A
10:00 PM70 °FMostly cloudy.7 mph73%29.89 "HgN/A
9:30 PM70 °FOvercast.8 mph73%29.86 "HgN/A
9:00 PM70 °FMostly cloudy.8 mph73%29.86 "HgN/A
8:30 PM70 °FPassing clouds.9 mph73%29.86 "HgN/A
8:00 PM70 °FMostly cloudy.10 mph78%29.86 "HgN/A
7:30 PM72 °FPartly sunny.9 mph73%29.86 "HgN/A
7:00 PM72 °FPartly sunny.10 mph73%29.86 "HgN/A
6:30 PM73 °FBroken clouds.12 mph74%29.86 "HgN/A
6:00 PM73 °FOvercast.13 mph69%29.86 "HgN/A
5:30 PM73 °FPartly sunny.12 mph69%29.86 "HgN/A
5:00 PM75 °FBroken clouds.10 mph65%29.86 "HgN/A
4:30 PM73 °FMostly cloudy.8 mph69%29.86 "HgN/A
4:00 PM75 °FCloudy.9 mph65%29.89 "HgN/A
3:30 PM75 °FMostly cloudy.9 mph65%29.89 "HgN/A
3:00 PM75 °FPartly sunny.8 mph69%29.89 "HgN/A
2:00 PM75 °FPartly sunny.7 mph65%29.92 "HgN/A
1:30 PM73 °FSprinkles. Cloudy.8 mph69%29.92 "HgN/A
1:00 PM72 °FOvercast.7 mph73%29.92 "HgN/A
12:30 PM75 °FMostly cloudy.7 mph69%29.92 "HgN/A
12:00 PM73 °FOvercast.6 mph69%29.92 "HgN/A
11:30 AM73 °FMostly cloudy.8 mph69%29.92 "HgN/A
11:00 AM73 °FOvercast.7 mph69%29.92 "HgN/A
10:30 AM73 °FPartly sunny.8 mph69%29.92 "HgN/A
10:00 AM72 °FBroken clouds.7 mph78%29.92 "HgN/A
9:30 AM70 °FBroken clouds.5 mph83%29.95 "HgN/A
9:00 AM70 °FPartly sunny.1 mph78%29.95 "HgN/A
8:30 AM68 °FPartly sunny.2 mph88%29.92 "HgN/A
8:00 AM68 °FPartly sunny.3 mph88%29.92 "HgN/A
7:30 AM66 °FScattered clouds.1 mph94%29.92 "HgN/A
7:00 AM66 °FScattered clouds.2 mph94%29.92 "HgN/A
6:30 AM66 °FOvercast.5 mph94%29.92 "HgN/A
6:00 AM66 °FOvercast.5 mph94%29.92 "HgN/A
Weather by CustomWeather, © 2016

See weather overviewHow to use our weather pages